[[{"header":{"parameterUnit":"m.s-1","parameterCategory":1,"la1":30.2991,"la2":30.254,"lo1":-89.0895,"lo2":-89.0444,"dy":0.0017,"dx":0.0017,"nx":28,"ny":28,"refTime":"2026-02-13T03:00:00:Z","depth":0,"parameterNumber":2,"parameterNumberName":"U-component_of_WINDS"},"data":[0,0,0,0,0,0,0,0,0,0,0,0,0,0,0,0,0,0,0,0,0,0,0,0,0,0,0,0,0,0,0,0,0,0,0,0,0,0,0,0,0,0,0,0,0,0,0,0,0,0,0,0,0,0,0,0,0,0,0.1589,0.1589,0,0.1615,0.1615,0.1616,0.1616,0.1616,0.1615,0.1615,0.1645,0.1646,0.1647,0,0,0,0,0,0,0,0,0,0,0,0,0,0.154,0.1541,0.1589,0.1589,0.1589,0.1615,0.1615,0.1616,0.1616,0.1616,0.1615,0.1615,0.1645,0.1646,0.1647,0,0,0,0,0,0,0,0,0,0,0,0,0,0.1563,0.1541,0.1589,0.1592,0.1593,0.1615,0.1615,0.1616,0.1616,0.1615,0.1615,0.1614,0.1644,0.1646,0.1648,0.1668,0,0,0.1653,0.1653,0,0,0,0,0,0,0,0,0.1562,0.1565,0.1591,0.1592,0.1593,0.1612,0.1609,0.1634,0.1616,0.1607,0.1615,0.1614,0.1635,0.1637,0.1643,0.167,0.1671,0.1653,0.1654,0.1655,0.1655,0,0,0,0,0,0,0,0.156,0.1564,0.1599,0.1592,0.1593,0.1593,0.1596,0.1614,0.1624,0.1608,0.1608,0.1611,0.1635,0.1642,0.1644,0.1672,0.1653,0.1654,0.1655,0.1656,0.1715,0.1715,0,0,0,0,0,0,0.1558,0.1563,0.1598,0.16,0.1576,0.1595,0.1598,0.1606,0.1623,0.1625,0.1612,0.1611,0.1639,0.1642,0.1645,0.1669,0.1655,0.1656,0.1657,0.1714,0.1715,0.1716,0,0,0,0,0,0,0.1557,0.1561,0.1597,0.1581,0.1586,0.1596,0.1605,0.1607,0.1614,0.1626,0.1628,0.1616,0.1639,0.1643,0.1662,0.167,0.1657,0.1658,0.1714,0.1715,0.1715,0.1719,0,0,0,0,0,0,0.1555,0.156,0.1568,0.1581,0.1587,0.1613,0.1606,0.1608,0.1616,0.1616,0.1631,0.1633,0.1639,0.1659,0.1664,0.1673,0.166,0.1713,0.1714,0.1715,0.1718,0.172,0.1721,0,0,0,0,0,0.1553,0.1569,0.1569,0.1573,0.1596,0.1614,0.1617,0.1622,0.1617,0.1625,0.1632,0.1633,0.1669,0.1661,0.1666,0.1676,0.1712,0.1714,0.1715,0.1718,0.172,0.1721,0,0,0,0,0,0,0.1558,0.1571,0.1571,0.1591,0.1601,0.1614,0.1624,0.1624,0.1637,0.1636,0.1642,0.1646,0.1665,0.1672,0.1664,0.1696,0.169,0.1692,0.169,0.1692,0.1694,0.1692,0.1661,0,0,0,0,0,0.1561,0.1574,0.1584,0.1601,0.1606,0.1614,0.1622,0.1625,0.1636,0.1641,0.165,0.1661,0.1675,0.1684,0.1698,0.1719,0.1722,0.1728,0.1729,0.1731,0.1733,0.1743,0.1746,0.172,0.172,0.172,0,0,0.1569,0.1577,0.1585,0.1603,0.1611,0.1623,0.1618,0.1632,0.1642,0.1643,0.1661,0.1668,0.1682,0.1702,0.1711,0.1709,0.174,0.1732,0.1733,0.1734,0.1745,0.1747,0.1749,0.172,0.172,0.172,0,0,0.1588,0.1596,0.161,0.1618,0.163,0.1635,0.1638,0.165,0.1654,0.1673,0.1673,0.1685,0.1709,0.1718,0.1726,0.1746,0.1747,0.1751,0.1759,0.1769,0.1771,0.1773,0.178,0.1782,0.1753,0.1753,0.1753,0,0.1596,0.1614,0.1618,0.1631,0.1639,0.1639,0.1653,0.1661,0.1677,0.1683,0.1679,0.1708,0.1717,0.1738,0.1743,0.175,0.1754,0.1749,0.1771,0.1773,0.1774,0.1781,0.1783,0.1753,0.1753,0.1753,0.1753,0,0.1623,0.1636,0.1646,0.166,0.1668,0.1683,0.1688,0.1697,0.1698,0.1703,0.1721,0.1732,0.1747,0.1752,0.1754,0.1773,0.1771,0.1769,0.1764,0.1777,0.1783,0.1786,0.1754,0.1753,0.1753,0.1753,0,0,0.1647,0.1661,0.1665,0.167,0.1683,0.1693,0.1707,0.172,0.1727,0.1738,0.1749,0.1768,0.1766,0.1774,0.1778,0.1787,0.1801,0.1783,0.1784,0.1786,0.1822,0.1823,0.1826,0.1801,0.1802,0.1802,0.1821,0,0.1668,0.1691,0.1694,0.1715,0.1726,0.1725,0.1737,0.1746,0.1751,0.1762,0.1768,0.1781,0.1777,0.1782,0.1791,0.1798,0.1809,0.1796,0.1812,0.1813,0.1809,0.1829,0.1831,0.1848,0.1823,0.1824,0.1824,0,0.1695,0.1704,0.1726,0.1735,0.174,0.1751,0.1762,0.1772,0.1782,0.1785,0.1794,0.1795,0.1809,0.1803,0.1822,0.1814,0.182,0.1824,0.1825,0.1827,0.1819,0.1831,0.1854,0.1856,0.1828,0.1828,0.1827,0,0.1709,0.1728,0.1743,0.1748,0.1759,0.1766,0.1772,0.1781,0.1788,0.1798,0.1803,0.1815,0.1822,0.1832,0.1836,0.1831,0.1855,0.1849,0.1858,0.1858,0.1863,0.1863,0.1887,0.1868,0.1868,0.1868,0.1868,0,0.1732,0.1745,0.1749,0.1759,0.1773,0.1776,0.179,0.1795,0.1803,0.1813,0.1814,0.1824,0.183,0.184,0.1844,0.1859,0.1863,0.1865,0.1866,0.1865,0.1865,0.187,0.1868,0.1869,0.1868,0.1868,0.1868,0,0.1751,0.1754,0.177,0.1779,0.1781,0.1792,0.1799,0.1808,0.1812,0.1825,0.1828,0.1835,0.1847,0.1853,0.1869,0.1871,0.1888,0.1888,0.1884,0.1885,0.1893,0.1892,0.1921,0.1924,0.1903,0.1904,0.1904,0,0.1764,0.1774,0.1783,0.179,0.1794,0.1805,0.1812,0.1815,0.1822,0.1833,0.184,0.1852,0.1862,0.1882,0.1889,0.19,0.1901,0.191,0.1902,0.1901,0.19,0.1899,0.19,0.1911,0.1911,0.1912,0.1912,0,0.1788,0.1789,0.1799,0.1808,0.1816,0.1824,0.1832,0.1837,0.1841,0.1849,0.1861,0.1868,0.1883,0.1895,0.1907,0.1913,0.1913,0.1914,0.1916,0.1915,0.1912,0.1913,0.1888,0.1913,0.1913,0.1913,0.1913,0.1913,0.1805,0.1813,0.182,0.183,0.1836,0.1843,0.1851,0.1856,0.1865,0.1877,0.1878,0.189,0.1899,0.1914,0.192,0.193,0.1928,0.1932,0.1933,0.1934,0.1934,0.191,0.1933,0.1933,0.1933,0.1933,0.1933,0,0.1828,0.1832,0.1842,0.1852,0.1859,0.1857,0.1866,0.1872,0.1883,0.189,0.1899,0.1912,0.1923,0.193,0.1941,0.1948,0.1948,0.195,0.195,0.1951,0.1936,0.1932,0.195,0.195,0.195,0.195,0.195,0.195,0.1841,0.1855,0.1856,0.1872,0.1876,0.1887,0.1892,0.1898,0.1904,0.1918,0.1927,0.1931,0.1938,0.1949,0.1959,0.196,0.1964,0.1967,0.1969,0.1954,0.1952,0.1951,0.1947,0.1968,0.1968,0.1983,0.1983,0.1983]},{"header":{"parameterUnit":"m.s-1","parameterCategory":1,"la1":30.2991,"la2":30.254,"lo1":-89.0895,"lo2":-89.0444,"dy":0.0017,"dx":0.0017,"nx":28,"ny":28,"refTime":"2026-02-13T03:00:00:Z","depth":0,"parameterNumber":3,"parameterNumberName":"V-component_of_WINDS"},"data":[0,0,0,0,0,0,0,0,0,0,0,0,0,0,0,0,0,0,0,0,0,0,0,0,0,0,0,0,0,0,0,0,0,0,0,0,0,0,0,0,0,0,0,0,0,0,0,0,0,0,0,0,0,0,0,0,0,0,0.9243,0.9243,0,0.9206,0.9205,0.9205,0.9186,0.9186,0.9186,0.9186,0.9146,0.9145,0.9144,0,0,0,0,0,0,0,0,0,0,0,0,0,0.9297,0.9296,0.9243,0.9243,0.9242,0.9206,0.9205,0.9205,0.9186,0.9186,0.9186,0.9186,0.9146,0.9145,0.9143,0,0,0,0,0,0,0,0,0,0,0,0,0,0.9268,0.9296,0.9243,0.9229,0.9227,0.9206,0.9205,0.9204,0.9186,0.9186,0.9186,0.9186,0.9146,0.9145,0.9143,0.9133,0,0,0.9138,0.9138,0,0,0,0,0,0,0,0,0.9269,0.9266,0.9231,0.9229,0.9228,0.9201,0.9209,0.918,0.9186,0.9202,0.9186,0.9186,0.9164,0.9161,0.9154,0.9131,0.9129,0.9138,0.9137,0.9136,0.9136,0,0,0,0,0,0,0,0.9271,0.9267,0.9228,0.9231,0.9228,0.9223,0.9219,0.9204,0.9183,0.92,0.9199,0.9195,0.9163,0.9155,0.9153,0.9129,0.9138,0.9137,0.9136,0.9135,0.9097,0.9097,0,0,0,0,0,0,0.9276,0.9269,0.9229,0.9227,0.9249,0.9222,0.9218,0.9209,0.9183,0.9179,0.9195,0.9194,0.9158,0.9154,0.9151,0.9138,0.9136,0.9135,0.9134,0.9097,0.9097,0.9097,0,0,0,0,0,0,0.9277,0.9273,0.9231,0.9248,0.9242,0.9221,0.9212,0.9208,0.9201,0.9179,0.9175,0.9191,0.9158,0.9153,0.9138,0.9136,0.9134,0.9133,0.9097,0.9097,0.9097,0.9111,0,0,0,0,0,0,0.9279,0.9273,0.927,0.9248,0.9241,0.9219,0.9212,0.9208,0.9198,0.9197,0.9174,0.9171,0.9158,0.9141,0.9136,0.9134,0.9131,0.9097,0.9097,0.9097,0.9111,0.9112,0.9112,0,0,0,0,0,0.9281,0.9274,0.9269,0.9265,0.9236,0.9219,0.9215,0.9201,0.9198,0.9194,0.918,0.9171,0.9137,0.9139,0.9134,0.9131,0.9097,0.9097,0.9097,0.911,0.9111,0.9112,0,0,0,0,0,0,0.9296,0.9271,0.9265,0.9252,0.9238,0.9216,0.921,0.9202,0.9188,0.9187,0.9169,0.9164,0.915,0.9139,0.9142,0.912,0.9116,0.9115,0.9128,0.9129,0.913,0.9133,0.913,0,0,0,0,0,0.9297,0.9286,0.9265,0.9255,0.9248,0.9231,0.9222,0.9213,0.9197,0.9191,0.9175,0.916,0.9146,0.9137,0.9122,0.9109,0.9104,0.9105,0.9105,0.9106,0.9105,0.9098,0.9098,0.9096,0.9096,0.9096,0,0,0.9301,0.9286,0.928,0.9258,0.9246,0.9234,0.9226,0.9213,0.9204,0.9188,0.9173,0.9162,0.9143,0.9129,0.9122,0.9119,0.9105,0.9106,0.9107,0.9106,0.9098,0.9098,0.9098,0.9096,0.9096,0.9096,0,0,0.9301,0.9288,0.9279,0.9267,0.925,0.9238,0.9236,0.9215,0.9207,0.9192,0.918,0.9169,0.9145,0.9132,0.9123,0.9119,0.911,0.9115,0.9119,0.9112,0.9112,0.9112,0.9111,0.9111,0.9114,0.9114,0.9114,0,0.9307,0.9289,0.9275,0.9264,0.9254,0.9241,0.9231,0.922,0.9198,0.9192,0.9189,0.9159,0.9146,0.9129,0.9128,0.9121,0.9117,0.9117,0.9113,0.9113,0.9113,0.9112,0.9111,0.9115,0.9115,0.9115,0.9115,0,0.9298,0.9286,0.928,0.926,0.925,0.924,0.9224,0.9215,0.9207,0.9195,0.918,0.9164,0.9146,0.9141,0.9132,0.9123,0.9122,0.9117,0.9112,0.9114,0.9113,0.9112,0.9116,0.9115,0.9115,0.9115,0,0,0.9305,0.9279,0.9277,0.9268,0.9248,0.9238,0.9227,0.921,0.9204,0.9189,0.9179,0.9159,0.9155,0.9144,0.9133,0.9127,0.9126,0.9122,0.9122,0.9124,0.9115,0.912,0.9119,0.912,0.912,0.912,0.9117,0,0.9302,0.9283,0.927,0.9255,0.9244,0.9231,0.9222,0.9208,0.9197,0.9186,0.9173,0.916,0.9154,0.9148,0.9141,0.9128,0.9124,0.9128,0.9111,0.911,0.9116,0.9118,0.9123,0.9121,0.9116,0.9116,0.9116,0,0.9296,0.9283,0.9268,0.9249,0.9244,0.9236,0.922,0.9209,0.9194,0.9186,0.9175,0.9165,0.9152,0.9149,0.9131,0.9134,0.9127,0.9119,0.9119,0.9116,0.9113,0.9116,0.912,0.9119,0.9115,0.9115,0.9115,0,0.9304,0.9282,0.927,0.9263,0.9241,0.9236,0.9226,0.9211,0.9202,0.9188,0.9182,0.9167,0.9158,0.9146,0.9132,0.9131,0.9116,0.9112,0.911,0.911,0.9107,0.9107,0.9109,0.9102,0.9102,0.9102,0.9102,0,0.9302,0.9293,0.9274,0.9266,0.9256,0.9241,0.9231,0.922,0.9207,0.9197,0.9184,0.9175,0.9157,0.9146,0.9134,0.9122,0.9118,0.9112,0.9109,0.9113,0.9114,0.9107,0.9107,0.9102,0.9102,0.9102,0.9102,0,0.9309,0.9295,0.9281,0.9262,0.9257,0.925,0.9234,0.9226,0.9215,0.9202,0.9199,0.9181,0.9167,0.9152,0.9132,0.9125,0.9113,0.9109,0.9119,0.9117,0.9116,0.9116,0.9114,0.9113,0.9106,0.9106,0.9106,0,0.9308,0.9301,0.9282,0.9275,0.9266,0.9254,0.9246,0.9231,0.9223,0.9205,0.9199,0.9184,0.9172,0.915,0.9135,0.912,0.9116,0.9116,0.9114,0.9118,0.9116,0.9117,0.9116,0.9117,0.9117,0.9117,0.9117,0,0.9309,0.9303,0.9292,0.9278,0.9268,0.9256,0.9244,0.9239,0.9222,0.9213,0.9199,0.9189,0.917,0.9156,0.9139,0.9129,0.912,0.9118,0.9117,0.9121,0.9127,0.9124,0.9121,0.9118,0.9118,0.9118,0.9118,0.9118,0.9312,0.9306,0.9291,0.9279,0.9268,0.9257,0.925,0.9238,0.9226,0.921,0.9202,0.9188,0.9173,0.9151,0.9141,0.9129,0.9127,0.9125,0.9124,0.9124,0.9125,0.9129,0.9126,0.9126,0.9126,0.9126,0.9126,0,0.9313,0.9303,0.9292,0.9276,0.9266,0.926,0.9246,0.9238,0.9227,0.9213,0.9202,0.9186,0.9172,0.9157,0.9142,0.9136,0.9132,0.9133,0.9133,0.9131,0.9128,0.9131,0.9137,0.9137,0.9137,0.9137,0.9137,0.9137,0.9312,0.9301,0.9293,0.9277,0.9267,0.9254,0.9247,0.9236,0.9226,0.9209,0.9198,0.9189,0.9175,0.9159,0.9146,0.9142,0.9137,0.9139,0.9134,0.9132,0.9131,0.913,0.9133,0.9138,0.9138,0.9137,0.9137,0.9137]}]]